Newport, VT

8:15 PM EDT on September 20, 2017 (GMT -0400)
Newport State

Weather History for KEFK - June, 2013

Change the Weather History Date:

Thursday, June 20, 2013

  Actual Average Record
Temperature  
Mean Temperature 55 °F -  
Max Temperature 70 °F 76 °F 93 °F (1931)
Min Temperature 40 °F 53 °F 40 °F (1948)
Degree Days  
Heating Degree Days 10    
Growing Degree Days 5 (Base 50)    
Moisture  
Dew Point 41 °F    
Average Humidity 60    
Maximum Humidity 91    
Minimum Humidity 27    
Precipitation  
Precipitation 0.00 in - - ()
Sea Level Pressure  
Sea Level Pressure 30.23 in    
Wind  
Wind Speed 3 mph (SW)    
Max Wind Speed 10 mph    
Max Gust Speed -    
Visibility 10 miles    
Events      
Averages and records for this station are not official NWS values.
T = Trace of Precipitation, MM = Missing Value Source: NWS Daily Summary

Daily Weather History Graph

Daily Weather History Graph

Search for Another Location

Airport or City:

Trip Planner

Search our weather history database for the weather conditions in past years. The results will help you decide how hot, cold, wet, or windy it might be!

Date:

Astronomy

Jun. 20, 2013 Rise Set
Actual Time 5:02 AM EDT 8:38 PM EDT
Civil Twilight 4:25 AM EDT 9:16 PM EDT
Nautical Twilight 3:35 AM EDT 10:05 PM EDT
Astronomical Twilight 2:30 AM EDT 11:11 PM EDT
Moon 5:32 PM EDT (6/20) 2:33 AM EDT (6/20)
Length of Visible Light 16h 50m
Length of Day
15h 36m
Waxing Gibbous, 89% of the Moon is Illuminated
Jun 20
Waxing Gibbous
Jun 23
Full
Jun 30
Last Quarter
Jul 8
New
Jul 15
First Quarter

Hourly Weather History & Observations

Time (EDT) Temp. Windchill Dew Point Humidity Pressure Visibility Wind Dir Wind Speed Gust Speed Precip Events Conditions
12:15 AM 45.9 °F - 41.9 °F 86% 30.20 in 10.0 mi Calm Calm - N/A   Clear
12:35 AM 46.4 °F - 41.9 °F 84% 30.20 in 10.0 mi Calm Calm - N/A   Clear
12:55 AM 45.5 °F - 41.4 °F 85% 30.20 in 10.0 mi Calm Calm - N/A   Clear
1:15 AM 44.6 °F - 41.0 °F 87% 30.20 in 10.0 mi Calm Calm - N/A   Clear
1:35 AM 44.4 °F - 40.6 °F 87% 30.20 in 10.0 mi Calm Calm - N/A   Clear
1:55 AM 44.6 °F - 41.4 °F 88% 30.21 in 10.0 mi Calm Calm - N/A   Clear
2:15 AM 43.5 °F 41.9 °F 40.3 °F 88% 30.21 in 10.0 mi SW 3.5 mph - N/A   Clear
2:35 AM 43.0 °F 41.3 °F 40.3 °F 90% 30.21 in 10.0 mi SSW 3.5 mph - N/A   Clear
2:55 AM 42.4 °F 40.7 °F 39.6 °F 90% 30.21 in 10.0 mi SW 3.5 mph - N/A   Clear
3:15 AM 41.9 °F - 39.4 °F 91% 30.21 in 10.0 mi Calm Calm - N/A   Clear
3:35 AM 42.8 °F - 40.1 °F 90% 30.21 in 10.0 mi Calm Calm - N/A   Clear
3:55 AM 43.0 °F 41.3 °F 40.5 °F 91% 30.22 in 10.0 mi SW 3.5 mph - N/A   Clear
4:15 AM 40.6 °F 37.5 °F 38.1 °F 91% 30.22 in 10.0 mi SW 4.6 mph - N/A   Clear
4:35 AM 41.0 °F 38.0 °F 38.5 °F 91% 30.23 in 10.0 mi SSW 4.6 mph - N/A   Clear
4:55 AM 41.2 °F 39.2 °F 38.8 °F 91% 30.23 in 10.0 mi SSW 3.5 mph - N/A   Clear
5:15 AM 40.8 °F - 38.3 °F 91% 30.24 in 10.0 mi Calm Calm - N/A   Clear
5:35 AM 41.2 °F 39.2 °F 38.8 °F 91% 30.24 in 10.0 mi SSW 3.5 mph - N/A   Clear
5:55 AM 42.1 °F 39.2 °F 39.6 °F 91% 30.25 in 10.0 mi SSW 4.6 mph - N/A   Clear
6:15 AM 43.2 °F - 40.5 °F 90% 30.25 in 10.0 mi Calm Calm - N/A   Clear
6:35 AM 44.4 °F 42.9 °F 41.5 °F 90% 30.26 in 10.0 mi SSW 3.5 mph - N/A   Clear
6:55 AM 45.7 °F - 42.3 °F 88% 30.27 in 10.0 mi Calm Calm - N/A   Clear
7:15 AM 48.0 °F - 43.5 °F 84% 30.27 in 10.0 mi Calm Calm - N/A   Clear
7:35 AM 49.5 °F - 44.2 °F 82% 30.27 in 10.0 mi Calm Calm - N/A   Clear
7:55 AM 50.9 °F - 44.8 °F 80% 30.27 in 10.0 mi Calm Calm - N/A   Clear
8:15 AM 53.2 °F - 46.6 °F 78% 30.27 in 10.0 mi SSW 3.5 mph - N/A   Clear
8:35 AM 55.9 °F - 47.3 °F 73% 30.27 in 10.0 mi South 4.6 mph - N/A   Clear
8:55 AM 58.3 °F - 46.9 °F 66% 30.27 in 10.0 mi SSW 4.6 mph - N/A   Clear
9:15 AM 60.1 °F - 46.8 °F 61% 30.27 in 10.0 mi SSW 4.6 mph - N/A   Clear
9:35 AM 61.7 °F - 46.9 °F 58% 30.26 in 10.0 mi South 3.5 mph - N/A   Clear
9:55 AM 62.8 °F - 44.6 °F 51% 30.27 in 10.0 mi WSW 8.1 mph - N/A   Clear
10:15 AM 64.4 °F - 43.7 °F 47% 30.27 in 10.0 mi SSE 4.6 mph - N/A   Clear
10:35 AM 64.9 °F - 40.5 °F 41% 30.26 in 10.0 mi SSE 3.5 mph - N/A   Clear
10:55 AM 65.3 °F - 42.3 °F 43% 30.25 in 10.0 mi SSW 8.1 mph - N/A   Clear
11:15 AM 66.2 °F - 40.1 °F 38% 30.25 in 10.0 mi SSW 6.9 mph - N/A   Clear
11:35 AM 65.3 °F - 40.3 °F 40% 30.25 in 10.0 mi South 4.6 mph - N/A   Clear
11:55 AM 66.7 °F - 40.5 °F 38% 30.25 in 10.0 mi Calm Calm - N/A   Clear
12:15 PM 66.7 °F - 40.8 °F 39% 30.25 in 10.0 mi Calm Calm - N/A   Clear
12:35 PM 67.5 °F - 39.2 °F 36% 30.24 in 10.0 mi SSE 4.6 mph - N/A   Clear
12:55 PM 67.5 °F - 40.1 °F 37% 30.24 in 10.0 mi SSW 4.6 mph - N/A   Clear
1:15 PM 68.0 °F - 42.1 °F 39% 30.23 in 10.0 mi SW 4.6 mph - N/A   Scattered Clouds
1:35 PM 68.4 °F - 42.8 °F 40% 30.23 in 10.0 mi West 5.8 mph - N/A   Scattered Clouds
1:55 PM 69.1 °F - 43.0 °F 39% 30.23 in 10.0 mi SW 3.5 mph - N/A   Mostly Cloudy
2:15 PM 69.1 °F - 40.8 °F 36% 30.23 in 10.0 mi SW 4.6 mph - N/A   Scattered Clouds
2:35 PM 69.3 °F - 41.7 °F 37% 30.23 in 10.0 mi SSW 6.9 mph - N/A   Scattered Clouds
2:55 PM 69.6 °F - 39.7 °F 34% 30.23 in 10.0 mi West 9.2 mph - N/A   Scattered Clouds
3:15 PM 69.8 °F - 40.8 °F 35% 30.22 in 10.0 mi West 6.9 mph - N/A   Clear
3:35 PM 70.7 °F - 38.7 °F 31% 30.22 in 10.0 mi Calm Calm - N/A   Clear
3:55 PM 70.7 °F - 36.7 °F 29% 30.22 in 10.0 mi SSW 8.1 mph - N/A   Clear
4:15 PM 70.7 °F - 36.0 °F 28% 30.21 in 10.0 mi SSW 9.2 mph - N/A   Clear
4:35 PM 70.7 °F - 38.3 °F 31% 30.21 in 10.0 mi WSW 10.4 mph - N/A   Clear
4:55 PM 70.7 °F - 37.0 °F 29% 30.21 in 10.0 mi WSW 10.4 mph - N/A   Clear
5:15 PM 70.5 °F - 34.7 °F 27% 30.21 in 10.0 mi WSW 8.1 mph - N/A   Clear
5:35 PM 70.3 °F - 36.9 °F 29% 30.20 in 10.0 mi SW 6.9 mph - N/A   Clear
5:55 PM 70.2 °F - 38.3 °F 31% 30.20 in 10.0 mi SW 8.1 mph - N/A   Clear
6:15 PM 69.4 °F - 38.3 °F 32% 30.20 in 10.0 mi West 6.9 mph - N/A   Clear
6:35 PM 69.1 °F - 38.7 °F 33% 30.21 in 10.0 mi West 4.6 mph - N/A   Clear
6:55 PM 68.4 °F - 39.2 °F 34% 30.20 in 10.0 mi West 4.6 mph - N/A   Clear
7:15 PM 68.0 °F - 39.7 °F 36% 30.21 in 10.0 mi WNW 4.6 mph - N/A   Clear
7:35 PM 66.9 °F - 40.3 °F 38% 30.20 in 10.0 mi NW 4.6 mph - N/A   Clear
7:55 PM 65.5 °F - 40.8 °F 41% 30.21 in 10.0 mi Calm Calm - N/A   Clear
8:15 PM 64.4 °F - 42.6 °F 45% 30.21 in 10.0 mi NW 3.5 mph - N/A   Clear
8:35 PM 63.5 °F - 42.1 °F 46% 30.21 in 10.0 mi NW 3.5 mph - N/A   Clear
8:55 PM 62.1 °F - 42.6 °F 49% 30.21 in 10.0 mi WNW 3.5 mph - N/A   Clear
9:15 PM 60.3 °F - 42.8 °F 53% 30.22 in 10.0 mi NW 5.8 mph - N/A   Clear
9:35 PM 60.6 °F - 42.4 °F 51% 30.22 in 10.0 mi Calm Calm - N/A   Clear
9:55 PM 56.7 °F - 44.6 °F 64% 30.23 in 10.0 mi Calm Calm - N/A   Clear
10:15 PM 55.6 °F - 43.7 °F 64% 30.23 in 10.0 mi Calm Calm - N/A   Clear
10:35 PM 56.1 °F - 43.3 °F 62% 30.22 in 10.0 mi Calm Calm - N/A   Clear
10:55 PM 54.5 °F - 44.4 °F 69% 30.22 in 10.0 mi SW 3.5 mph - N/A   Clear
11:15 PM 52.3 °F - 45.1 °F 76% 30.22 in 10.0 mi SW 5.8 mph - N/A   Clear
11:35 PM 51.1 °F - 45.1 °F 80% 30.23 in 10.0 mi SW 3.5 mph - N/A   Clear
11:55 PM 51.3 °F - 45.0 °F 79% 30.23 in 10.0 mi Calm Calm - N/A   Clear